{"data":{"norad_id":51731,"epoch":"2026-05-24T20:29:42.831744Z","epoch_age_seconds":88446,"freshness":"FRESH","line1":"1 51731U 22016T   26144.85396796  .00000724  00000+0  63601-4 0  9990","line2":"2 51731  53.2147 337.2042 0001401  87.8728 272.2424 15.08839300235064","mean_motion":15.088393,"eccentricity":0.0001401,"inclination_deg":53.2147,"raan_deg":337.2042,"arg_perigee_deg":87.8728,"mean_anomaly_deg":272.2424,"bstar":6.3601e-5,"rev_number":23506,"period_min":95.437598954375,"perigee_km":538.77633324264,"apogee_km":540.71472392715,"semimajor_km":6917.8825285849,"source":"CELESTRAK","updated_at":"2026-05-25T13:38:16.922848Z"}}